Year,Month,Day,Hour,Minute,Value (Times are PST for temperature in C)
2016,08,04,00,00,14.00
2016,08,04,00,01,14.00
2016,08,04,00,02,14.00
2016,08,04,00,03,14.00
2016,08,04,00,04,14.00
2016,08,04,00,05,14.00
2016,08,04,00,06,14.00
2016,08,04,00,07,14.00
2016,08,04,00,08,14.00
2016,08,04,00,09,14.00
2016,08,04,00,10,14.00
2016,08,04,00,11,14.00
2016,08,04,00,12,14.00
2016,08,04,00,13,14.00
2016,08,04,00,14,14.00
2016,08,04,00,15,14.00
2016,08,04,00,16,14.00
2016,08,04,00,17,14.10
2016,08,04,00,18,14.10
2016,08,04,00,19,14.10
2016,08,04,00,20,14.10
2016,08,04,00,21,14.10
2016,08,04,00,22,14.10
2016,08,04,00,23,14.10
2016,08,04,00,24,14.10
2016,08,04,00,25,14.10
2016,08,04,00,26,14.10
2016,08,04,00,27,14.10
2016,08,04,00,28,14.10
2016,08,04,00,29,14.10
2016,08,04,00,30,14.10
2016,08,04,00,31,14.10
2016,08,04,00,32,14.10
2016,08,04,00,33,14.10
2016,08,04,00,34,14.10
2016,08,04,00,35,14.10
2016,08,04,00,36,14.10
2016,08,04,00,37,14.10
2016,08,04,00,38,14.10
2016,08,04,00,39,14.20
2016,08,04,00,40,14.20
2016,08,04,00,41,14.20
2016,08,04,00,42,14.20
2016,08,04,00,43,14.20
2016,08,04,00,44,14.20
2016,08,04,00,45,14.20
2016,08,04,00,46,14.20
2016,08,04,00,47,14.20
2016,08,04,00,48,14.20
2016,08,04,00,49,14.20
2016,08,04,00,50,14.20
2016,08,04,00,51,14.20
2016,08,04,00,52,14.20
2016,08,04,00,53,14.20
2016,08,04,00,54,14.20
2016,08,04,00,55,14.20
2016,08,04,00,56,14.20
2016,08,04,00,57,14.20
2016,08,04,00,58,14.20
2016,08,04,00,59,14.20
2016,08,04,01,00,14.20
2016,08,04,01,01,14.20
2016,08,04,01,02,14.20
2016,08,04,01,03,14.20
2016,08,04,01,04,14.20
2016,08,04,01,05,14.20
2016,08,04,01,06,14.20
2016,08,04,01,07,14.30
2016,08,04,01,08,14.30
2016,08,04,01,09,14.30
2016,08,04,01,10,14.30
2016,08,04,01,11,14.30
2016,08,04,01,12,14.30
2016,08,04,01,13,14.30
2016,08,04,01,14,14.30
2016,08,04,01,15,14.30
2016,08,04,01,16,14.30
2016,08,04,01,17,14.30
2016,08,04,01,18,14.30
2016,08,04,01,19,14.30
2016,08,04,01,20,14.30
2016,08,04,01,21,14.30
2016,08,04,01,22,14.30
2016,08,04,01,23,14.30
2016,08,04,01,24,14.40
2016,08,04,01,25,14.40
2016,08,04,01,26,14.40
2016,08,04,01,27,14.40
2016,08,04,01,28,14.40
2016,08,04,01,29,14.40
2016,08,04,01,30,14.40
2016,08,04,01,31,14.50
2016,08,04,01,32,14.50
2016,08,04,01,33,14.50
2016,08,04,01,34,14.50
2016,08,04,01,35,14.50
2016,08,04,01,36,14.50
2016,08,04,01,37,14.50
2016,08,04,01,38,14.50
2016,08,04,01,39,14.50
2016,08,04,01,40,14.50
2016,08,04,01,41,14.50
2016,08,04,01,42,14.50
2016,08,04,01,43,14.50
2016,08,04,01,44,14.50
2016,08,04,01,45,14.50
2016,08,04,01,46,14.50
2016,08,04,01,47,14.50
2016,08,04,01,48,14.50
2016,08,04,01,49,14.50
2016,08,04,01,50,14.50
2016,08,04,01,51,14.50
2016,08,04,01,52,14.50
2016,08,04,01,53,14.50
2016,08,04,01,54,14.50
2016,08,04,01,55,14.50
2016,08,04,01,56,14.50
2016,08,04,01,57,14.50
2016,08,04,01,58,14.50
2016,08,04,01,59,14.50
2016,08,04,02,00,14.50
2016,08,04,02,01,14.50
2016,08,04,02,02,14.50
2016,08,04,02,03,14.50
2016,08,04,02,04,14.50
2016,08,04,02,05,14.50
2016,08,04,02,06,14.50
2016,08,04,02,07,14.50
2016,08,04,02,08,14.40
2016,08,04,02,09,14.40
2016,08,04,02,10,14.40
2016,08,04,02,11,14.40
2016,08,04,02,12,14.40
2016,08,04,02,13,14.40
2016,08,04,02,14,14.40
2016,08,04,02,15,14.40
2016,08,04,02,16,14.40
2016,08,04,02,17,14.40
2016,08,04,02,18,14.40
2016,08,04,02,19,14.40
2016,08,04,02,20,14.40
2016,08,04,02,21,14.40
2016,08,04,02,22,14.40
2016,08,04,02,23,14.40
2016,08,04,02,24,14.40
2016,08,04,02,25,14.40
2016,08,04,02,26,14.40
2016,08,04,02,27,14.40
2016,08,04,02,28,14.40
2016,08,04,02,29,14.40
2016,08,04,02,30,14.40
2016,08,04,02,31,14.40
2016,08,04,02,32,14.40
2016,08,04,02,33,14.40
2016,08,04,02,34,14.40
2016,08,04,02,35,14.40
2016,08,04,02,36,14.40
2016,08,04,02,37,14.40
2016,08,04,02,38,14.40
2016,08,04,02,39,14.40
2016,08,04,02,40,14.40
2016,08,04,02,41,14.40
2016,08,04,02,42,14.40
2016,08,04,02,43,14.40
2016,08,04,02,44,14.40
2016,08,04,02,45,14.40
2016,08,04,02,46,14.40
2016,08,04,02,47,14.40
2016,08,04,02,48,14.40
2016,08,04,02,49,14.40
2016,08,04,02,50,14.40
2016,08,04,02,51,14.40
2016,08,04,02,52,14.40
2016,08,04,02,53,14.30
2016,08,04,02,54,14.30
2016,08,04,02,55,14.30
2016,08,04,02,56,14.30
2016,08,04,02,57,14.30
2016,08,04,02,58,14.30
2016,08,04,02,59,14.30
2016,08,04,03,00,14.30
2016,08,04,03,01,14.30
2016,08,04,03,02,14.30
2016,08,04,03,03,14.30
2016,08,04,03,04,14.30
2016,08,04,03,05,14.30
2016,08,04,03,06,14.30
2016,08,04,03,07,14.30
2016,08,04,03,08,14.20
2016,08,04,03,09,14.20
2016,08,04,03,10,14.20
2016,08,04,03,11,14.20
2016,08,04,03,12,14.20
2016,08,04,03,13,14.20
2016,08,04,03,14,14.30
2016,08,04,03,15,14.30
2016,08,04,03,16,14.30
2016,08,04,03,17,14.30
2016,08,04,03,18,14.30
2016,08,04,03,19,14.30
2016,08,04,03,20,14.30
2016,08,04,03,21,14.30
2016,08,04,03,22,14.20
2016,08,04,03,23,14.20
2016,08,04,03,24,14.20
2016,08,04,03,25,14.20
2016,08,04,03,26,14.20
2016,08,04,03,27,14.20
2016,08,04,03,28,14.20
2016,08,04,03,29,14.20
2016,08,04,03,30,14.20
2016,08,04,03,31,14.20
2016,08,04,03,32,14.20
2016,08,04,03,33,14.20
2016,08,04,03,34,14.20
2016,08,04,03,35,14.20
2016,08,04,03,36,14.20
2016,08,04,03,37,14.20
2016,08,04,03,38,14.20
2016,08,04,03,39,14.20
2016,08,04,03,40,14.20
2016,08,04,03,41,14.20
2016,08,04,03,42,14.20
2016,08,04,03,43,14.20
2016,08,04,03,44,14.20
2016,08,04,03,45,14.20
2016,08,04,03,46,14.20
2016,08,04,03,47,14.10
2016,08,04,03,48,14.20
2016,08,04,03,49,14.10
2016,08,04,03,50,14.20
2016,08,04,03,51,14.10
2016,08,04,03,52,14.10
2016,08,04,03,53,14.10
2016,08,04,03,54,14.10
2016,08,04,03,55,14.10
2016,08,04,03,56,14.10
2016,08,04,03,57,14.10
2016,08,04,03,58,14.10
2016,08,04,03,59,14.00
2016,08,04,04,00,14.00
2016,08,04,04,01,14.00
2016,08,04,04,02,14.00
2016,08,04,04,03,14.00
2016,08,04,04,04,14.00
2016,08,04,04,05,13.90
2016,08,04,04,06,13.90
2016,08,04,04,07,13.90
2016,08,04,04,08,13.90
2016,08,04,04,09,13.90
2016,08,04,04,10,13.90
2016,08,04,04,11,13.90
2016,08,04,04,12,13.90
2016,08,04,04,13,13.90
2016,08,04,04,14,13.90
2016,08,04,04,15,13.90
2016,08,04,04,16,13.90
2016,08,04,04,17,13.90
2016,08,04,04,18,13.80
2016,08,04,04,19,13.80
2016,08,04,04,20,13.80
2016,08,04,04,21,13.80
2016,08,04,04,22,13.80
2016,08,04,04,23,13.80
2016,08,04,04,24,13.80
2016,08,04,04,25,13.80
2016,08,04,04,26,13.80
2016,08,04,04,27,13.80
2016,08,04,04,28,13.80
2016,08,04,04,29,13.80
2016,08,04,04,30,13.80
2016,08,04,04,31,13.80
2016,08,04,04,32,13.80
2016,08,04,04,33,13.80
2016,08,04,04,34,13.80
2016,08,04,04,35,13.80
2016,08,04,04,36,13.80
2016,08,04,04,37,13.70
2016,08,04,04,38,13.70
2016,08,04,04,39,13.70
2016,08,04,04,40,13.70
2016,08,04,04,41,13.70
2016,08,04,04,42,13.70
2016,08,04,04,43,13.70
2016,08,04,04,44,13.70
2016,08,04,04,45,13.70
2016,08,04,04,46,13.70
2016,08,04,04,47,13.70
2016,08,04,04,48,13.70
2016,08,04,04,49,13.70
2016,08,04,04,50,13.70
2016,08,04,04,51,13.70
2016,08,04,04,52,13.70
2016,08,04,04,53,13.60
2016,08,04,04,54,13.60
2016,08,04,04,55,13.60
2016,08,04,04,56,13.60
2016,08,04,04,57,13.60
2016,08,04,04,58,13.60
2016,08,04,04,59,13.60
2016,08,04,05,00,13.60
2016,08,04,05,01,13.60
2016,08,04,05,02,13.60
2016,08,04,05,03,13.60
2016,08,04,05,04,13.60
2016,08,04,05,05,13.60
2016,08,04,05,06,13.60
2016,08,04,05,07,13.60
2016,08,04,05,08,13.60
2016,08,04,05,09,13.60
2016,08,04,05,10,13.60
2016,08,04,05,11,13.60
2016,08,04,05,12,13.60
2016,08,04,05,13,13.60
2016,08,04,05,14,13.60
2016,08,04,05,15,13.60
2016,08,04,05,16,13.60
2016,08,04,05,17,13.60
2016,08,04,05,18,13.60
2016,08,04,05,19,13.60
2016,08,04,05,20,13.60
2016,08,04,05,21,13.60
2016,08,04,05,22,13.60
2016,08,04,05,23,13.60
2016,08,04,05,24,13.60
2016,08,04,05,25,13.60
2016,08,04,05,26,13.50
2016,08,04,05,27,13.50
2016,08,04,05,28,13.50
2016,08,04,05,29,13.50
2016,08,04,05,30,13.50
2016,08,04,05,31,13.40
2016,08,04,05,32,13.40
2016,08,04,05,33,13.40
2016,08,04,05,34,13.40
2016,08,04,05,35,13.40
2016,08,04,05,36,13.40
2016,08,04,05,37,13.40
2016,08,04,05,38,13.40
2016,08,04,05,39,13.40
2016,08,04,05,40,13.40
2016,08,04,05,41,13.40
2016,08,04,05,42,13.40
2016,08,04,05,43,13.40
2016,08,04,05,44,13.40
2016,08,04,05,45,13.40
2016,08,04,05,46,13.40
2016,08,04,05,47,13.40
2016,08,04,05,48,13.40
2016,08,04,05,49,13.40
2016,08,04,05,50,13.40
2016,08,04,05,51,13.40
2016,08,04,05,52,13.40
2016,08,04,05,53,13.40
2016,08,04,05,54,13.40
2016,08,04,05,55,13.40
2016,08,04,05,56,13.40
2016,08,04,05,57,13.40
2016,08,04,05,58,13.40
2016,08,04,05,59,13.40
2016,08,04,06,00,13.40
2016,08,04,06,01,13.40
2016,08,04,06,02,13.40
2016,08,04,06,03,13.40
2016,08,04,06,04,13.40
2016,08,04,06,05,13.40
2016,08,04,06,06,13.40
2016,08,04,06,07,13.40
2016,08,04,06,08,13.40
2016,08,04,06,09,13.40
2016,08,04,06,10,13.40
2016,08,04,06,11,13.40
2016,08,04,06,12,13.40
2016,08,04,06,13,13.40
2016,08,04,06,14,13.40
2016,08,04,06,15,13.40
2016,08,04,06,16,13.40
2016,08,04,06,17,13.40
2016,08,04,06,18,13.40
2016,08,04,06,19,13.30
2016,08,04,06,20,13.30
2016,08,04,06,21,13.30
2016,08,04,06,22,13.30
2016,08,04,06,23,13.30
2016,08,04,06,24,13.30
2016,08,04,06,25,13.30
2016,08,04,06,26,13.30
2016,08,04,06,27,13.30
2016,08,04,06,28,13.30
2016,08,04,06,29,13.30
2016,08,04,06,30,13.30
2016,08,04,06,31,13.30
2016,08,04,06,32,13.30
2016,08,04,06,33,13.30
2016,08,04,06,34,13.30
2016,08,04,06,35,13.30
2016,08,04,06,36,13.30
2016,08,04,06,37,13.30
2016,08,04,06,38,13.30
2016,08,04,06,39,13.30
2016,08,04,06,40,13.30
2016,08,04,06,41,13.40
2016,08,04,06,42,13.40
2016,08,04,06,43,13.40
2016,08,04,06,44,13.40
2016,08,04,06,45,13.40
2016,08,04,06,46,13.40
2016,08,04,06,47,13.40
2016,08,04,06,48,13.40
2016,08,04,06,49,13.40
2016,08,04,06,50,13.40
2016,08,04,06,51,13.50
2016,08,04,06,52,13.50
2016,08,04,06,53,13.50
2016,08,04,06,54,13.50
2016,08,04,06,55,13.50
2016,08,04,06,56,13.60
2016,08,04,06,57,13.60
2016,08,04,06,58,13.60
2016,08,04,06,59,13.60
2016,08,04,07,00,13.60
2016,08,04,07,01,13.60
2016,08,04,07,02,13.70
2016,08,04,07,03,13.70
2016,08,04,07,04,13.70
2016,08,04,07,05,13.70
2016,08,04,07,06,13.70
2016,08,04,07,07,13.80
2016,08,04,07,08,13.80
2016,08,04,07,09,13.80
2016,08,04,07,10,13.80
2016,08,04,07,11,13.80
2016,08,04,07,12,13.80
2016,08,04,07,13,13.90
2016,08,04,07,14,13.90
2016,08,04,07,15,13.90
2016,08,04,07,16,13.90
2016,08,04,07,17,13.90
2016,08,04,07,18,13.90
2016,08,04,07,19,14.00
2016,08,04,07,20,14.00
2016,08,04,07,21,14.00
2016,08,04,07,22,14.10
2016,08,04,07,23,14.10
2016,08,04,07,24,14.10
2016,08,04,07,25,14.10
2016,08,04,07,26,14.20
2016,08,04,07,27,14.20
2016,08,04,07,28,14.20
2016,08,04,07,29,14.20
2016,08,04,07,30,14.30
2016,08,04,07,31,14.30
2016,08,04,07,32,14.30
2016,08,04,07,33,14.40
2016,08,04,07,34,14.40
2016,08,04,07,35,14.40
2016,08,04,07,36,14.50
2016,08,04,07,37,14.50
2016,08,04,07,38,14.60
2016,08,04,07,39,14.60
2016,08,04,07,40,14.70
2016,08,04,07,41,14.80
2016,08,04,07,42,14.80
2016,08,04,07,43,14.90
2016,08,04,07,44,15.00
2016,08,04,07,45,15.00
2016,08,04,07,46,15.10
2016,08,04,07,47,15.10
2016,08,04,07,48,15.20
2016,08,04,07,49,15.20
2016,08,04,07,50,15.30
2016,08,04,07,51,15.30
2016,08,04,07,52,15.40
2016,08,04,07,53,15.40
2016,08,04,07,54,15.50
2016,08,04,07,55,15.50
2016,08,04,07,56,15.60
2016,08,04,07,57,15.60
2016,08,04,07,58,15.70
2016,08,04,07,59,15.70
2016,08,04,08,00,15.80
2016,08,04,08,01,15.80
2016,08,04,08,02,15.90
2016,08,04,08,03,15.90
2016,08,04,08,04,16.00
2016,08,04,08,05,16.10
2016,08,04,08,06,16.20
2016,08,04,08,07,16.40
2016,08,04,08,08,16.50
2016,08,04,08,09,16.50
2016,08,04,08,10,16.60
2016,08,04,08,11,16.60
2016,08,04,08,12,16.70
2016,08,04,08,13,16.70
2016,08,04,08,14,16.70
2016,08,04,08,15,16.70
2016,08,04,08,16,16.70
2016,08,04,08,17,16.80
2016,08,04,08,18,16.90
2016,08,04,08,19,17.00
2016,08,04,08,20,17.10
2016,08,04,08,21,17.20
2016,08,04,08,22,17.30
2016,08,04,08,23,17.40
2016,08,04,08,24,17.40
2016,08,04,08,25,17.50
2016,08,04,08,26,17.50
2016,08,04,08,27,17.50
2016,08,04,08,28,17.60
2016,08,04,08,29,17.60
2016,08,04,08,30,17.60
2016,08,04,08,31,17.70
2016,08,04,08,32,17.80
2016,08,04,08,33,17.80
2016,08,04,08,34,17.90
2016,08,04,08,35,17.90
2016,08,04,08,36,18.00
2016,08,04,08,37,18.00
2016,08,04,08,38,18.10
2016,08,04,08,39,18.10
2016,08,04,08,40,18.10
2016,08,04,08,41,18.10
2016,08,04,08,42,18.20
2016,08,04,08,43,18.20
2016,08,04,08,44,18.20
2016,08,04,08,45,18.30
2016,08,04,08,46,18.30
2016,08,04,08,47,18.40
2016,08,04,08,48,18.40
2016,08,04,08,49,18.40
2016,08,04,08,50,18.50
2016,08,04,08,51,18.60
2016,08,04,08,52,18.60
2016,08,04,08,53,18.70
2016,08,04,08,54,18.70
2016,08,04,08,55,18.80
2016,08,04,08,56,18.80
2016,08,04,08,57,18.80
2016,08,04,08,58,18.90
2016,08,04,08,59,18.90
2016,08,04,09,00,19.00
2016,08,04,09,01,19.00
2016,08,04,09,02,19.10
2016,08,04,09,03,19.10
2016,08,04,09,04,19.10
2016,08,04,09,05,19.20
2016,08,04,09,06,19.20
2016,08,04,09,07,19.20
2016,08,04,09,08,19.20
2016,08,04,09,09,19.20
2016,08,04,09,10,19.20
2016,08,04,09,11,19.30
2016,08,04,09,12,19.30
2016,08,04,09,13,19.30
2016,08,04,09,14,19.30
2016,08,04,09,15,19.30
2016,08,04,09,16,19.30
2016,08,04,09,17,19.30
2016,08,04,09,18,19.30
2016,08,04,09,19,19.30
2016,08,04,09,20,19.30
2016,08,04,09,21,19.40
2016,08,04,09,22,19.40
2016,08,04,09,23,19.40
2016,08,04,09,24,19.40
2016,08,04,09,25,19.40
2016,08,04,09,26,19.40
2016,08,04,09,27,19.40
2016,08,04,09,28,19.40
2016,08,04,09,29,19.40
2016,08,04,09,30,19.40
2016,08,04,09,31,19.40
2016,08,04,09,32,19.40
2016,08,04,09,33,19.50
2016,08,04,09,34,19.50
2016,08,04,09,35,19.50
2016,08,04,09,36,19.60
2016,08,04,09,37,19.60
2016,08,04,09,38,19.60
2016,08,04,09,39,19.60
2016,08,04,09,40,19.60
2016,08,04,09,41,19.60
2016,08,04,09,42,19.70
2016,08,04,09,43,19.70
2016,08,04,09,44,19.70
2016,08,04,09,45,19.70
2016,08,04,09,46,19.70
2016,08,04,09,47,19.60
2016,08,04,09,48,19.60
2016,08,04,09,49,19.60
2016,08,04,09,50,19.60
2016,08,04,09,51,19.60
2016,08,04,09,52,19.50
2016,08,04,09,53,19.50
2016,08,04,09,54,19.50
2016,08,04,09,55,19.50
2016,08,04,09,56,19.40
2016,08,04,09,57,19.40
2016,08,04,09,58,19.40
2016,08,04,09,59,19.40
2016,08,04,10,00,19.50
2016,08,04,10,01,19.50
2016,08,04,10,02,19.50
2016,08,04,10,03,19.60
2016,08,04,10,04,19.60
2016,08,04,10,05,19.60
2016,08,04,10,06,19.60
2016,08,04,10,07,19.60
2016,08,04,10,08,19.60
2016,08,04,10,09,19.60
2016,08,04,10,10,19.60
2016,08,04,10,11,19.60
2016,08,04,10,12,19.50
2016,08,04,10,13,19.50
2016,08,04,10,14,19.50
2016,08,04,10,15,19.50
2016,08,04,10,16,19.60
2016,08,04,10,17,19.60
2016,08,04,10,18,19.60
2016,08,04,10,19,19.60
2016,08,04,10,20,19.60
2016,08,04,10,21,19.70
2016,08,04,10,22,19.70
2016,08,04,10,23,19.70
2016,08,04,10,24,19.70
2016,08,04,10,25,19.70
2016,08,04,10,26,19.70
2016,08,04,10,27,19.70
2016,08,04,10,28,19.70
2016,08,04,10,29,19.80
2016,08,04,10,30,19.80
2016,08,04,10,31,19.80
2016,08,04,10,32,19.90
2016,08,04,10,33,19.90
2016,08,04,10,34,19.90
2016,08,04,10,35,19.90
2016,08,04,10,36,19.90
2016,08,04,10,37,19.90
2016,08,04,10,38,19.90
2016,08,04,10,39,19.90
2016,08,04,10,40,20.00
2016,08,04,10,41,20.00
2016,08,04,10,42,20.00
2016,08,04,10,43,20.10
2016,08,04,10,44,20.10
2016,08,04,10,45,20.10
2016,08,04,10,46,20.20
2016,08,04,10,47,20.20
2016,08,04,10,48,20.20
2016,08,04,10,49,20.20
2016,08,04,10,50,20.20
2016,08,04,10,51,20.20
2016,08,04,10,52,20.20
2016,08,04,10,53,20.20
2016,08,04,10,54,20.20
2016,08,04,10,55,20.20
2016,08,04,10,56,20.20
2016,08,04,10,57,20.20
2016,08,04,10,58,20.20
2016,08,04,10,59,20.20
2016,08,04,11,00,20.20
2016,08,04,11,01,20.30
2016,08,04,11,02,20.30
2016,08,04,11,03,20.30
2016,08,04,11,04,20.30
2016,08,04,11,05,20.30
2016,08,04,11,06,20.30
2016,08,04,11,07,20.30
2016,08,04,11,08,20.30
2016,08,04,11,09,20.30
2016,08,04,11,10,20.30
2016,08,04,11,11,20.30
2016,08,04,11,12,20.30
2016,08,04,11,13,20.30
2016,08,04,11,14,20.30
2016,08,04,11,15,20.30
2016,08,04,11,16,20.30
2016,08,04,11,17,20.30
2016,08,04,11,18,20.30
2016,08,04,11,19,20.30
2016,08,04,11,20,20.30
2016,08,04,11,21,20.30
2016,08,04,11,22,20.40
2016,08,04,11,23,20.40
2016,08,04,11,24,20.40
2016,08,04,11,25,20.40
2016,08,04,11,26,20.30
2016,08,04,11,27,20.30
2016,08,04,11,28,20.30
2016,08,04,11,29,20.30
2016,08,04,11,30,20.30
2016,08,04,11,31,20.30
2016,08,04,11,32,20.30
2016,08,04,11,33,20.40
2016,08,04,11,34,20.40
2016,08,04,11,35,20.50
2016,08,04,11,36,20.50
2016,08,04,11,37,20.60
2016,08,04,11,38,20.60
2016,08,04,11,39,20.60
2016,08,04,11,40,20.60
2016,08,04,11,41,20.60
2016,08,04,11,42,20.60
2016,08,04,11,43,20.60
2016,08,04,11,44,20.60
2016,08,04,11,45,20.60
2016,08,04,11,46,20.60
2016,08,04,11,47,20.70
2016,08,04,11,48,20.70
2016,08,04,11,49,20.70
2016,08,04,11,50,20.70
2016,08,04,11,51,20.60
2016,08,04,11,52,20.70
2016,08,04,11,53,20.70
2016,08,04,11,54,20.70
2016,08,04,11,55,20.70
2016,08,04,11,56,20.80
2016,08,04,11,57,20.80
2016,08,04,11,58,20.80
2016,08,04,11,59,20.90
2016,08,04,12,00,20.90
2016,08,04,12,01,20.90
2016,08,04,12,02,20.90
2016,08,04,12,03,20.80
2016,08,04,12,04,20.80
2016,08,04,12,05,20.80
2016,08,04,12,06,20.80
2016,08,04,12,07,20.80
2016,08,04,12,08,20.80
2016,08,04,12,09,20.80
2016,08,04,12,10,20.80
2016,08,04,12,11,20.80
2016,08,04,12,12,20.80
2016,08,04,12,13,20.80
2016,08,04,12,14,20.90
2016,08,04,12,15,20.90
2016,08,04,12,16,20.90
2016,08,04,12,17,20.90
2016,08,04,12,18,20.90
2016,08,04,12,19,20.90
2016,08,04,12,20,21.00
2016,08,04,12,21,21.00
2016,08,04,12,22,21.00
2016,08,04,12,23,21.10
2016,08,04,12,24,21.10
2016,08,04,12,25,21.10
2016,08,04,12,26,21.00
2016,08,04,12,27,21.10
2016,08,04,12,28,21.10
2016,08,04,12,29,21.10
2016,08,04,12,30,21.10
2016,08,04,12,31,21.20
2016,08,04,12,32,21.20
2016,08,04,12,33,21.30
2016,08,04,12,34,21.30
2016,08,04,12,35,21.30
2016,08,04,12,36,21.40
2016,08,04,12,37,21.40
2016,08,04,12,38,21.40
2016,08,04,12,39,21.40
2016,08,04,12,40,21.40
2016,08,04,12,41,21.40
2016,08,04,12,42,21.40
2016,08,04,12,43,21.40
2016,08,04,12,44,21.50
2016,08,04,12,45,21.50
2016,08,04,12,46,21.50
2016,08,04,12,47,21.50
2016,08,04,12,48,21.60
2016,08,04,12,49,21.60
2016,08,04,12,50,21.60
2016,08,04,12,51,21.60
2016,08,04,12,52,21.60
2016,08,04,12,53,21.60
2016,08,04,12,54,21.60
2016,08,04,12,55,21.60
2016,08,04,12,56,21.60
2016,08,04,12,57,21.60
2016,08,04,12,58,21.60
2016,08,04,12,59,21.60
2016,08,04,13,00,21.60
2016,08,04,13,01,21.50
2016,08,04,13,02,21.50
2016,08,04,13,03,21.40
2016,08,04,13,04,21.40
2016,08,04,13,05,21.40
2016,08,04,13,06,21.40
2016,08,04,13,07,21.40
2016,08,04,13,08,21.40
2016,08,04,13,09,21.30
2016,08,04,13,10,21.30
2016,08,04,13,11,21.30
2016,08,04,13,12,21.30
2016,08,04,13,13,21.30
2016,08,04,13,14,21.30
2016,08,04,13,15,21.30
2016,08,04,13,16,21.30
2016,08,04,13,17,21.40
2016,08,04,13,18,21.40
2016,08,04,13,19,21.50
2016,08,04,13,20,21.50
2016,08,04,13,21,21.60
2016,08,04,13,22,21.60
2016,08,04,13,23,21.70
2016,08,04,13,24,21.70
2016,08,04,13,25,21.70
2016,08,04,13,26,21.70
2016,08,04,13,27,21.70
2016,08,04,13,28,21.70
2016,08,04,13,29,21.70
2016,08,04,13,30,21.70
2016,08,04,13,31,21.80
2016,08,04,13,32,21.80
2016,08,04,13,33,21.80
2016,08,04,13,34,21.80
2016,08,04,13,35,21.70
2016,08,04,13,36,21.70
2016,08,04,13,37,21.70
2016,08,04,13,38,21.70
2016,08,04,13,39,21.80
2016,08,04,13,40,21.80
2016,08,04,13,41,21.80
2016,08,04,13,42,21.90
2016,08,04,13,43,21.90
2016,08,04,13,44,21.90
2016,08,04,13,45,22.00
2016,08,04,13,46,22.00
2016,08,04,13,47,22.00
2016,08,04,13,48,22.10
2016,08,04,13,49,22.10
2016,08,04,13,50,22.10
2016,08,04,13,51,22.10
2016,08,04,13,52,22.10
2016,08,04,13,53,22.10
2016,08,04,13,54,22.10
2016,08,04,13,55,22.10
2016,08,04,13,56,22.10
2016,08,04,13,57,22.20
2016,08,04,13,58,22.20
2016,08,04,13,59,22.20
2016,08,04,14,00,22.20
2016,08,04,14,01,22.20
2016,08,04,14,02,22.20
2016,08,04,14,03,22.10
2016,08,04,14,04,22.10
2016,08,04,14,05,22.10
2016,08,04,14,06,22.10
2016,08,04,14,07,22.00
2016,08,04,14,08,22.00
2016,08,04,14,09,21.90
2016,08,04,14,10,21.90
2016,08,04,14,11,21.90
2016,08,04,14,12,21.90
2016,08,04,14,13,21.90
2016,08,04,14,14,21.90
2016,08,04,14,15,21.90
2016,08,04,14,16,21.90
2016,08,04,14,17,22.00
2016,08,04,14,18,22.00
2016,08,04,14,19,22.10
2016,08,04,14,20,22.10
2016,08,04,14,21,22.00
2016,08,04,14,22,22.00
2016,08,04,14,23,22.00
2016,08,04,14,24,22.00
2016,08,04,14,25,22.10
2016,08,04,14,26,22.10
2016,08,04,14,27,22.20
2016,08,04,14,28,22.20
2016,08,04,14,29,22.20
2016,08,04,14,30,22.20
2016,08,04,14,31,22.30
2016,08,04,14,32,22.30
2016,08,04,14,33,22.40
2016,08,04,14,34,22.50
2016,08,04,14,35,22.50
2016,08,04,14,36,22.60
2016,08,04,14,37,22.60
2016,08,04,14,38,22.70
2016,08,04,14,39,22.70
2016,08,04,14,40,22.70
2016,08,04,14,41,22.70
2016,08,04,14,42,22.70
2016,08,04,14,43,22.70
2016,08,04,14,44,22.70
2016,08,04,14,45,22.70
2016,08,04,14,46,22.70
2016,08,04,14,47,22.70
2016,08,04,14,48,22.70
2016,08,04,14,49,22.70
2016,08,04,14,50,22.60
2016,08,04,14,51,22.60
2016,08,04,14,52,22.60
2016,08,04,14,53,22.60
2016,08,04,14,54,22.60
2016,08,04,14,55,22.60
2016,08,04,14,56,22.60
2016,08,04,14,57,22.60
2016,08,04,14,58,22.60
2016,08,04,14,59,22.60
2016,08,04,15,00,22.60
2016,08,04,15,01,22.60
2016,08,04,15,02,22.50
2016,08,04,15,03,22.50
2016,08,04,15,04,22.50
2016,08,04,15,05,22.50
2016,08,04,15,06,22.50
2016,08,04,15,07,22.60
2016,08,04,15,08,22.60
2016,08,04,15,09,22.60
2016,08,04,15,10,22.60
2016,08,04,15,11,22.60
2016,08,04,15,12,22.60
2016,08,04,15,13,22.70
2016,08,04,15,14,22.70
2016,08,04,15,15,22.70
2016,08,04,15,16,22.70
2016,08,04,15,17,22.80
2016,08,04,15,18,22.80
2016,08,04,15,19,22.80
2016,08,04,15,20,22.80
2016,08,04,15,21,22.80
2016,08,04,15,22,22.80
2016,08,04,15,23,22.80
2016,08,04,15,24,22.80
2016,08,04,15,25,22.90
2016,08,04,15,26,22.90
2016,08,04,15,27,22.90
2016,08,04,15,28,22.90
2016,08,04,15,29,22.90
2016,08,04,15,30,22.90
2016,08,04,15,31,22.90
2016,08,04,15,32,22.90
2016,08,04,15,33,22.90
2016,08,04,15,34,22.90
2016,08,04,15,35,22.80
2016,08,04,15,36,22.70
2016,08,04,15,37,22.60
2016,08,04,15,38,22.60
2016,08,04,15,39,22.50
2016,08,04,15,40,22.40
2016,08,04,15,41,22.30
2016,08,04,15,42,22.30
2016,08,04,15,43,22.30
2016,08,04,15,44,22.20
2016,08,04,15,45,22.20
2016,08,04,15,46,22.20
2016,08,04,15,47,22.10
2016,08,04,15,48,22.00
2016,08,04,15,49,21.90
2016,08,04,15,50,21.80
2016,08,04,15,51,21.60
2016,08,04,15,52,21.50
2016,08,04,15,53,21.40
2016,08,04,15,54,21.40
2016,08,04,15,55,21.40
2016,08,04,15,56,21.30
2016,08,04,15,57,21.30
2016,08,04,15,58,21.30
2016,08,04,15,59,21.20
2016,08,04,16,00,21.20
2016,08,04,16,01,21.20
2016,08,04,16,02,21.30
2016,08,04,16,03,21.30
2016,08,04,16,04,21.20
2016,08,04,16,05,21.20
2016,08,04,16,06,21.20
2016,08,04,16,07,21.10
2016,08,04,16,08,21.10
2016,08,04,16,09,21.00
2016,08,04,16,10,20.90
2016,08,04,16,11,20.90
2016,08,04,16,12,20.90
2016,08,04,16,13,20.90
2016,08,04,16,14,20.90
2016,08,04,16,15,20.90
2016,08,04,16,16,20.90
2016,08,04,16,17,20.90
2016,08,04,16,18,20.80
2016,08,04,16,19,20.80
2016,08,04,16,20,20.80
2016,08,04,16,21,20.80
2016,08,04,16,22,20.70
2016,08,04,16,23,20.70
2016,08,04,16,24,20.60
2016,08,04,16,25,20.60
2016,08,04,16,26,20.60
2016,08,04,16,27,20.60
2016,08,04,16,28,20.60
2016,08,04,16,29,20.60
2016,08,04,16,30,20.60
2016,08,04,16,31,20.60
2016,08,04,16,32,20.70
2016,08,04,16,33,20.70
2016,08,04,16,34,20.70
2016,08,04,16,35,20.70
2016,08,04,16,36,20.80
2016,08,04,16,37,20.80
2016,08,04,16,38,20.70
2016,08,04,16,39,20.70
2016,08,04,16,40,20.70
2016,08,04,16,41,20.70
2016,08,04,16,42,20.70
2016,08,04,16,43,20.70
2016,08,04,16,44,20.70
2016,08,04,16,45,20.60
2016,08,04,16,46,20.60
2016,08,04,16,47,20.60
2016,08,04,16,48,20.60
2016,08,04,16,49,20.70
2016,08,04,16,50,20.70
2016,08,04,16,51,20.70
2016,08,04,16,52,20.70
2016,08,04,16,53,20.80
2016,08,04,16,54,20.80
2016,08,04,16,55,20.80
2016,08,04,16,56,20.80
2016,08,04,16,57,20.80
2016,08,04,16,58,20.80
2016,08,04,16,59,20.70
2016,08,04,17,00,20.70
2016,08,04,17,01,20.70
2016,08,04,17,02,20.70
2016,08,04,17,03,20.70
2016,08,04,17,04,20.70
2016,08,04,17,05,20.70
2016,08,04,17,06,20.60
2016,08,04,17,07,20.60
2016,08,04,17,08,20.50
2016,08,04,17,09,20.50
2016,08,04,17,10,20.40
2016,08,04,17,11,20.40
2016,08,04,17,12,20.40
2016,08,04,17,13,20.30
2016,08,04,17,14,20.30
2016,08,04,17,15,20.30
2016,08,04,17,16,20.30
2016,08,04,17,17,20.20
2016,08,04,17,18,20.20
2016,08,04,17,19,20.20